Location: Biharia
(46.4333°N, 22.8000°E)
Time: 18:22:07
(UTC+00:00)

FENGYUN 1C DEB - Pass Details

Date: 16 August 2022
Orbit: 796 x 915 km, 98.9° (Epoch: 24 September)

Event Time Altitude Azimuth Distance (km) Brightness Sun altitude
Rises 22:07:28 0° 27° (NNE) 3,417 ? -29.8°
Reaches altitude 10° 22:10:32 10° 44° (NE) 2,454 ? -29.8°
Enters shadow 22:13:38 19° 78° (ENE) 1,854 ? -29.9°
